Location: Nelson
(47.1935°N, 121.0537°W)
Time: 06:27:12
(UTC+00:00)

BlueWalker 3 - Pass Details

Date: 03 December 2022
Orbit: 499 x 517 km, 53.2° (Epoch: 27 January)

Event Time Altitude Azimuth Distance (km) Brightness Sun altitude
Rises 01:15:17 0° 277° (W) 2,636 6.8 -9.8°
Reaches altitude 10° 01:17:38 10° 286° (WNW) 1,746 5.5 -10.2°
Maximum altitude 01:21:17 34° 353° (N) 855 3.0 -10.7°
Enters shadow 01:23:59 16° 53° (NE) 1,416 3.6 -11.2°
